This is the latest recevied weather packets stored in our database for station/object K1BES. If no packets are shown the sender has not sent any weather packets the latest 10 day(s).
| Time | Temp. | Humidity | Pressure | Rain* | Wind** | Luminosity | Snow |
|---|---|---|---|---|---|---|---|
| 1788533691 | 31.11° C | 86% | 1018 hPa | 0 mm | - | 768 W/m² | - |
| 1788533387 | 30.56° C | 88% | 1018.1 hPa | 0 mm | - | 791 W/m² | - |
| 1788533083 | 30.56° C | 87% | 1018.1 hPa | 0 mm | - | 813 W/m² | - |
| 1788532778 | 30.56° C | 89% | 1018 hPa | 0 mm | - | 233 W/m² | - |
| 1788532475 | 29.44° C | 93% | 1018 hPa | 0 mm | - | 785 W/m² | - |
| 1788532176 | 28.33° C | 95% | 1017.9 hPa | 0 mm | - | 266 W/m² | - |
| 1788531867 | 27.78° C | 94% | 1017.8 hPa | 0 mm | - | 779 W/m² | - |
| 1788531567 | 27.78° C | 93% | 1017.8 hPa | 0 mm | - | 79 W/m² | - |
| 1788531262 | 28.89° C | 92% | 1017.8 hPa | 3.05 mm | - | 87 W/m² | - |
| 1788530958 | 28.33° C | 94% | 1017.6 hPa | 1.27 mm | - | 361 W/m² | - |
| 1788530658 | 28.89° C | 95% | 1017.5 hPa | 0 mm | - | 138 W/m² | - |
| 1788530357 | 27.78° C | 96% | 1017.6 hPa | 0 mm | - | 647 W/m² | - |
| 1788530057 | 27.78° C | 95% | 1017.7 hPa | 0 mm | - | 683 W/m² | - |
| 1788529754 | 27.78° C | 95% | 1017.6 hPa | 11.94 mm | - | 192 W/m² | - |
| 1788529453 | 27.78° C | 95% | 1017.9 hPa | 10.16 mm | - | 204 W/m² | - |
| 1788529165 | 27.22° C | 95% | 1017.7 hPa | 0 mm | - | 190 W/m² | - |
| 1788528843 | 27.22° C | 94% | 1017.6 hPa | 3.56 mm | - | 170 W/m² | - |
| 1788528538 | 26.67° C | 95% | 1017.4 hPa | 26.42 mm | - | 594 W/m² | - |
| 1788528233 | 27.22° C | 94% | 1017.7 hPa | 22.86 mm | - | 245 W/m² | - |
| 1788527933 | 27.22° C | 94% | 1017.6 hPa | 1.27 mm | - | 153 W/m² | - |
| 1788527629 | 27.78° C | 95% | 1017.5 hPa | 0 mm | - | 117 W/m² | - |
| 1788527329 | 27.78° C | 95% | 1017.6 hPa | 0 mm | - | 82 W/m² | - |
| 1788527028 | 27.78° C | 95% | 1017.4 hPa | 0 mm | - | 79 W/m² | - |
| 1788526723 | 27.78° C | 94% | 1017.5 hPa | 10.67 mm | - | 106 W/m² | - |
| 1788526420 | 28.33° C | 94% | 1017.5 hPa | 19.81 mm | - | 158 W/m² | - |
* Rain latest hour (hover to see other rain measurements)
** Current wind speed in m/s (hover to see current wind gust speed)